User: anonymous   Login
Location: Pine Mountain Observatory
(43.7910°N, 120.9377°W)
Time: 15:55:38
(UTC-07:00)
Language:

Cosmos 1076 Rocket - Orbit

View from above orbital plane
View from above orbital plane
View from above satellite
View from above satellite

Ground track
Ground track

The orbit data is extracted from the following two-line orbital elements,

1 11267U 79011B   17267.63516299 +.00000097 +00000-0 +76544-5 0  9996
2 11267 082.5245 135.6093 0015372 258.2069 101.7424 14.88856715069065
Epoch (UTC): 24 September 2017 15:14:38
Eccentricity: 0.0015372
inclination: 82.5245°
perigee height: 591 km
apogee height: 612 km
right ascension of ascending node: 135.6093°
argument of perigee: 258.2069°
revolutions per day: 14.88856715
mean anomaly at epoch: 101.7424°
orbit number at epoch: 6906

The dashed part of the orbit path shows where the satellite is in the earth's shadow,  

DLR